ws.asiatradehub.com - /buySellImagesPending/


[To Parent Directory]

5/14/2024 8:33 PM 492030 124736-Eco-friendlyNoPlasticDustproofTear-resistanceNaturalClayPackagingKraftPaperRoll01.png
5/14/2024 8:35 PM 517980 124736-LightweightBreathableMineralDesiccantPackagingDotNonwovenFabric01.png
5/14/2024 8:23 PM 453336 124736-LightweightBreathablePorousSilicaGelDesiccantPackingCompositePaper01.png
5/14/2024 8:37 PM 665044 124736-LightweightBreathableSmoothySurfaceSilicaGelBeadsPackingFlatNon-wovenFabric01.png
5/14/2024 8:39 PM 513280 124736-SmoothySurfaceBreathablePowderPackingFilmCompoundFlatNonwovenFabric01.png
5/18/2024 1:34 PM 1059099 124772-125ccMiniJeepUTVGoKart125ccKartGolfCart01.png
4/17/2024 2:32 PM 2263359 124772-150ccMiniBeetleRideOnCarMiniClassicCarGasBeetleJuniorCar01.png
4/12/2024 8:10 AM 569051 124778-logo.png
5/8/2024 6:34 AM 250707 124781-3-50mmthick5083H32H321marinealuminumsheet01.png
4/24/2024 6:35 AM 282194 124781-Aluminumdiscsforcookware105010603003Aluminumdiscsfornon-stickpanswholesale01.png
4/10/2024 8:18 AM 2982953 124781-Chocolatepackagingaluminumfoil80111235coloredaluminumfoil01.png
4/10/2024 8:13 AM 16813 124781-logo.png
4/26/2024 11:59 AM 2171350 124783-logo.png
4/6/2024 4:53 PM 63845 124784-logo.png
4/6/2024 4:55 PM 63845 124784-MediSoftHospitalManagementSystem01.png
4/8/2024 4:46 AM 1191360 124786-MountainBike2021FocusThron6.901.png
4/8/2024 12:02 PM 414581 124788-BeltDriveSpindles-MV0910D01.png
4/8/2024 12:04 PM 306810 124788-CNCExternalGrindingSpindles-GH100201.png
4/8/2024 12:06 PM 23002 124788-TurningCenterSpindles-KT140601.png
4/8/2024 1:41 PM 125036 124789-logo.png
4/10/2024 7:21 AM 14007 124791-logo.png
4/11/2024 7:51 AM 5648 124793-logo.png
4/11/2024 1:08 PM 141768 124794-logo.png
4/16/2024 11:40 AM 1053484 124797-BallsforBallValve01.png
4/29/2024 8:13 AM 52022 124797-logo.png
4/16/2024 2:26 PM 222848 124798-AccelerationMechanicalShockTestMachine01.png
4/16/2024 2:10 PM 160584 124798-IndustrialHeatingOvenHighTemperatureOven01.png
4/16/2024 1:45 PM 341193 124798-JOEOEnvironmentalTestChambersmanufacturersclimatictestchamber01.png
5/21/2024 2:54 PM 32116 124798-logo.png
4/16/2024 2:24 PM 222848 124798-TemperatureHumidityAndVibrationTestChamber01.png
4/16/2024 2:20 PM 260231 124798-WalkInSaltSprayChamber(TemperatureHumidityCombineSaltSpray)01.png
4/17/2024 1:39 PM 948563 124799-90-250mmPEpipeproductionlinesecondhand01.png
4/17/2024 1:39 PM 1519295 124799-90-250mmPEpipeproductionlinesecondhand11.png
4/25/2024 2:17 PM 3139528 124802-E-glassWovenrovingfiberglasswovenroving01.png
4/26/2024 9:10 AM 13774 124803-logo.png
4/27/2024 12:28 PM 97468 124806-logo.png
4/29/2024 11:52 AM 4645667 124807-ZpmcPartsforStsCranesandRtgsBrakesLiningsCouplingsFiltersTrolleysSupportingRollersIdlersPulleysTwistedWiresShortRails01.png
4/29/2024 11:53 AM 23272 124807-ZpmcPartsforStsCranesandRtgsBrakesLiningsCouplingsFiltersTrolleysSupportingRollersIdlersPulleysTwistedWiresShortRails11.png
4/29/2024 12:25 PM 569051 124808-logo.png
4/29/2024 12:53 PM 196504 124808-PanstoPHHseriesslurrypump01.png
4/29/2024 12:19 PM 1354252 124808-PanstoPHseriesslurrypump01.png
4/29/2024 12:31 PM 3382199 124808-PanstoPLseriesslurrypump01.png
4/29/2024 12:28 PM 569051 124808-PanstoPMseriesslurrypump01.png
4/29/2024 12:43 PM 3370249 124808-PanstoPPMseriesslurrypump01.png
5/14/2024 1:59 PM 53111 124818-logo.png
5/20/2024 1:34 PM 32583 124822-logo.png
5/24/2024 12:50 PM 97219 124825-LightDutyWarehouseShelving01.png
5/24/2024 12:47 PM 29419 124825-logo.png
5/24/2024 12:49 PM 97219 124825-RadioShuttleRackingWithPallet01.png
5/24/2024 12:46 PM 1868222 124825-SelectivePalletRackingSystem01.png
5/24/2024 12:46 PM 111524 124825-SelectivePalletRackingSystem11.png
5/25/2024 3:33 PM 187890 124826-Battery01.png
5/25/2024 3:29 PM 428743 124826-DieselGenerator01.png
5/25/2024 3:21 PM 232995 124826-ELECTRONICSHomeAPPLIANCES01.png
5/25/2024 12:31 PM 171937 124828-AdjustabledurablealuminumalloyXBannerStandfortradeshow01.png
5/25/2024 12:36 PM 420394 124828-CustomDouble-SidedCrowdBarrierBannerCoverForOutdoorEvents01.png
5/25/2024 12:33 PM 11173 124828-logo.png
5/25/2024 12:35 PM 171937 124828-RoundLEDLightBoxDoubleSidedAdvertisingSignOutdoor01.png